Location: Joffre
(52.3362°N, 113.5373°W)
Time: 12:26:14
(UTC+00:00)

N. Korean satellite - Pass Details

Date: 11 December 2021
Orbit: 447 x 490 km, 97.3° (Epoch: 27 January)

Event Time Altitude Azimuth Distance (km) Brightness Sun altitude
Rises 12:25:04 0° 20° (NNE) 2,465 10.4 -27.5°
Reaches altitude 10° 12:27:15 10° 31° (NNE) 1,587 9.5 -27.1°
Enters shadow 12:28:20 18° 42° (NE) 1,198 8.9 -27.0°
Exits shadow 12:32:45 15° 156° (SSE) 1,328 9.0 -26.3°
Drops below altitude 10° 12:33:26 10° 162° (SSE) 1,579 9.4 -26.2°
Sets 12:35:35 0° 173° (S) 2,450 10.3 -25.9°
